NFC9346 GVAC-SBFZ

Flight info

Callsign NFC9346
Flight time 3h 39m
Altitude 32000
Route LISOS1A MELUT UW46 KEPAS UN741 MERUD/N0500F330 UN741 NANIK/N0503F320 UN741 DEVUN DCT FLZ DCT
Aircraft B77L/H-SDE1E2E3FGHIJ2J3J4J5M1RWXY/LB1D1

Departure

Time 2026-04-22 08:44
Airport Amílcar Cabral International Airport (GVAC)

Arrival

Time 2026-04-22 12:24
Airport Pinto Martins International Airport (SBFZ)
Time Latitude Longitude Altitude Speed Heading
2026-04-22 08:16 16.73236 -22.94515 155 ft 0 kts 90°
2026-04-22 08:32 16.73236 -22.94516 155 ft 1 kts 90°
2026-04-22 08:33 16.73236 -22.94539 155 ft 4 kts 90°
2026-04-22 08:33 16.73235 -22.94563 155 ft 4 kts 78°
2026-04-22 08:33 16.73225 -22.94585 155 ft 4 kts 31°
2026-04-22 08:33 16.73200 -22.94593 155 ft 4 kts
2026-04-22 08:34 16.73189 -22.94593 155 ft 2 kts 359°
2026-04-22 08:37 16.73201 -22.94593 155 ft 7 kts 359°
2026-04-22 08:37 16.73271 -22.94594 155 ft 11 kts 359°
2026-04-22 08:37 16.73344 -22.94594 155 ft 11 kts
2026-04-22 08:37 16.73418 -22.94595 155 ft 11 kts 359°
2026-04-22 08:38 16.73491 -22.94597 155 ft 11 kts 358°
2026-04-22 08:38 16.73565 -22.94600 155 ft 11 kts 349°
2026-04-22 08:38 16.73612 -22.94653 155 ft 11 kts 294°
2026-04-22 08:38 16.73671 -22.94694 155 ft 11 kts 351°
2026-04-22 08:39 16.73744 -22.94696 155 ft 11 kts 359°
2026-04-22 08:39 16.73817 -22.94697 155 ft 11 kts 359°
2026-04-22 08:39 16.73891 -22.94697 154 ft 11 kts 360°
2026-04-22 08:39 16.73967 -22.94698 154 ft 11 kts 360°
2026-04-22 08:40 16.74054 -22.94698 155 ft 13 kts 360°
2026-04-22 08:40 16.74147 -22.94698 155 ft 13 kts 360°
2026-04-22 08:40 16.74241 -22.94698 155 ft 13 kts 359°
2026-04-22 08:40 16.74334 -22.94700 154 ft 13 kts 359°
2026-04-22 08:41 16.74428 -22.94701 155 ft 13 kts 360°
2026-04-22 08:41 16.74522 -22.94701 155 ft 13 kts 360°
2026-04-22 08:41 16.74615 -22.94701 155 ft 13 kts 359°
2026-04-22 08:41 16.74709 -22.94702 155 ft 13 kts 360°
2026-04-22 08:42 16.74803 -22.94703 155 ft 13 kts 360°
2026-04-22 08:42 16.74896 -22.94703 155 ft 13 kts 360°
2026-04-22 08:42 16.74982 -22.94731 156 ft 13 kts 315°
2026-04-22 08:42 16.75033 -22.94813 157 ft 13 kts 301°
2026-04-22 08:43 16.75030 -22.94888 157 ft 9 kts 224°
2026-04-22 08:43 16.74967 -22.94902 157 ft 10 kts 182°
2026-04-22 08:43 16.74743 -22.94902 156 ft 68 kts 179°
2026-04-22 08:43 16.74011 -22.94896 154 ft 140 kts 180°
2026-04-22 08:44 16.72829 -22.94887 192 ft 193 kts 180°
2026-04-22 08:44 16.71465 -22.94902 712 ft 197 kts 180°
2026-04-22 08:44 16.70088 -22.94887 1386 ft 197 kts 178°
2026-04-22 08:44 16.68693 -22.94843 1975 ft 207 kts 179°
2026-04-22 08:45 16.67171 -22.94802 2168 ft 230 kts 178°
2026-04-22 08:45 16.65497 -22.94760 2449 ft 249 kts 179°
2026-04-22 08:45 16.63738 -22.94740 2969 ft 255 kts 185°
2026-04-22 08:45 16.62081 -22.95373 3475 ft 256 kts 222°
2026-04-22 08:46 16.61054 -22.96808 4336 ft 244 kts 247°
2026-04-22 08:46 16.60620 -22.98481 5197 ft 237 kts 263°
2026-04-22 08:46 16.60558 -23.00209 5849 ft 240 kts 268°
2026-04-22 08:46 16.60570 -23.01955 6494 ft 242 kts 268°
2026-04-22 08:47 16.60586 -23.03715 7114 ft 243 kts 268°
2026-04-22 08:47 16.60591 -23.05488 7679 ft 247 kts 267°
2026-04-22 08:47 16.60587 -23.07284 8009 ft 248 kts 266°
2026-04-22 08:47 16.60577 -23.09096 7997 ft 251 kts 266°
2026-04-22 08:48 16.60566 -23.10910 8000 ft 249 kts 266°
2026-04-22 08:48 16.60677 -23.12698 7988 ft 249 kts 281°
2026-04-22 08:48 16.61479 -23.14329 8118 ft 259 kts 301°
2026-04-22 08:48 16.62792 -23.15673 8597 ft 272 kts 315°
2026-04-22 08:49 16.64351 -23.16840 9174 ft 278 kts 319°
2026-04-22 08:49 16.65963 -23.17976 9781 ft 281 kts 319°
2026-04-22 08:49 16.67587 -23.19122 10335 ft 283 kts 319°
2026-04-22 08:49 16.69194 -23.20268 10967 ft 284 kts 318°
2026-04-22 08:50 16.70828 -23.21443 11577 ft 287 kts 319°
2026-04-22 08:50 16.72511 -23.22670 11959 ft 303 kts 319°
2026-04-22 08:50 16.74297 -23.23977 12010 ft 327 kts 319°
2026-04-22 08:50 16.76230 -23.25392 12031 ft 352 kts 320°
2026-04-22 08:51 16.78301 -23.26910 12028 ft 376 kts 320°
2026-04-22 08:51 16.80375 -23.28595 12008 ft 379 kts 309°
2026-04-22 08:51 16.81772 -23.30879 12025 ft 372 kts 287°
2026-04-22 08:51 16.82337 -23.33490 12596 ft 368 kts 272°
2026-04-22 08:52 16.82387 -23.36151 13339 ft 366 kts 267°
2026-04-22 08:52 16.82327 -23.38854 13984 ft 370 kts 266°
2026-04-22 08:52 16.82248 -23.41514 14516 ft 374 kts 266°
2026-04-22 08:52 16.82172 -23.44242 15051 ft 378 kts 267°
2026-04-22 08:53 16.82108 -23.46998 15598 ft 382 kts 268°
2026-04-22 08:53 16.82052 -23.49785 16130 ft 386 kts 268°
2026-04-22 08:53 16.82003 -23.52599 16663 ft 390 kts 268°
2026-04-22 08:53 16.81956 -23.55436 17189 ft 394 kts 268°
2026-04-22 08:54 16.81910 -23.58313 17702 ft 398 kts 268°
2026-04-22 08:54 16.81862 -23.61219 18210 ft 402 kts 268°
2026-04-22 08:54 16.81804 -23.64142 18665 ft 405 kts 266°
2026-04-22 08:54 16.81404 -23.67045 19118 ft 406 kts 257°
2026-04-22 08:55 16.80669 -23.69900 19609 ft 408 kts 255°
2026-04-22 08:55 16.79886 -23.72751 20094 ft 409 kts 255°
2026-04-22 08:55 16.79099 -23.75613 20596 ft 411 kts 255°
2026-04-22 08:55 16.78323 -23.78480 21090 ft 412 kts 255°
2026-04-22 08:56 16.77555 -23.81375 21575 ft 414 kts 256°
2026-04-22 08:56 16.76795 -23.84282 22032 ft 416 kts 256°
2026-04-22 08:56 16.76040 -23.87201 22474 ft 418 kts 256°
2026-04-22 08:56 16.75289 -23.90125 22951 ft 420 kts 256°
2026-04-22 08:57 16.74532 -23.93077 23402 ft 422 kts 256°
2026-04-22 08:57 16.73772 -23.96046 23795 ft 424 kts 256°
2026-04-22 08:57 16.73008 -23.99028 24151 ft 427 kts 256°
2026-04-22 08:57 16.72240 -24.02022 24518 ft 429 kts 256°
2026-04-22 08:58 16.71467 -24.05035 24887 ft 431 kts 256°
2026-04-22 08:58 16.70690 -24.08061 25244 ft 433 kts 256°
2026-04-22 08:58 16.69910 -24.11098 25619 ft 434 kts 256°
2026-04-22 08:58 16.69127 -24.14139 25964 ft 436 kts 256°
2026-04-22 08:59 16.68338 -24.17207 26304 ft 439 kts 256°
2026-04-22 08:59 16.67544 -24.20288 26644 ft 441 kts 256°
2026-04-22 08:59 16.66746 -24.23384 26984 ft 443 kts 256°
2026-04-22 08:59 16.65945 -24.26493 27316 ft 445 kts 256°
2026-04-22 09:00 16.65138 -24.29617 27666 ft 448 kts 256°
2026-04-22 09:00 16.64327 -24.32758 27953 ft 450 kts 256°
2026-04-22 09:00 16.63511 -24.35922 28270 ft 452 kts 256°
2026-04-22 09:00 16.62690 -24.39094 28636 ft 454 kts 256°
2026-04-22 09:01 16.61866 -24.42276 28980 ft 456 kts 256°
2026-04-22 09:01 16.61038 -24.45470 29279 ft 458 kts 256°
2026-04-22 09:01 16.60205 -24.48685 29565 ft 460 kts 256°
2026-04-22 09:01 16.59367 -24.51917 29854 ft 463 kts 256°
2026-04-22 09:02 16.58526 -24.55159 30138 ft 464 kts 256°
2026-04-22 09:02 16.57683 -24.58403 30459 ft 464 kts 256°
2026-04-22 09:02 16.56840 -24.61644 30845 ft 462 kts 255°
2026-04-22 09:02 16.56001 -24.64872 31230 ft 461 kts 255°
2026-04-22 09:03 16.55164 -24.68089 31586 ft 460 kts 255°
2026-04-22 09:03 16.54327 -24.71303 31930 ft 459 kts 255°
2026-04-22 09:03 16.53492 -24.74509 32293 ft 458 kts 254°
2026-04-22 09:03 16.52659 -24.77705 32644 ft 457 kts 254°
2026-04-22 09:04 16.51825 -24.80899 32970 ft 457 kts 254°
2026-04-22 09:04 16.50992 -24.84092 33302 ft 456 kts 253°
2026-04-22 09:04 16.50161 -24.87273 33646 ft 455 kts 253°
2026-04-22 09:04 16.49329 -24.90457 33930 ft 456 kts 253°
2026-04-22 09:05 16.48491 -24.93657 33953 ft 459 kts 253°
2026-04-22 09:05 16.46817 -25.00051 33995 ft 456 kts 253°
2026-04-22 09:06 16.45156 -25.06389 34007 ft 452 kts 253°
2026-04-22 09:06 16.43782 -25.11622 34003 ft 450 kts 253°
2026-04-22 09:07 16.42131 -25.17904 34007 ft 449 kts 253°
2026-04-22 09:07 16.40477 -25.24189 34007 ft 450 kts 253°
2026-04-22 09:08 16.38819 -25.30479 34005 ft 451 kts 253°
2026-04-22 09:08 16.37156 -25.36783 34007 ft 452 kts 253°
2026-04-22 09:09 16.35485 -25.43107 34009 ft 453 kts 253°
2026-04-22 09:09 16.33808 -25.49444 34009 ft 454 kts 253°
2026-04-22 09:10 16.32128 -25.55789 34012 ft 455 kts 253°
2026-04-22 09:10 16.30445 -25.62136 34008 ft 455 kts 252°
2026-04-22 09:11 16.28758 -25.68487 34010 ft 455 kts 252°
2026-04-22 09:11 16.27082 -25.74791 34010 ft 455 kts 252°
2026-04-22 09:12 16.25394 -25.81131 34010 ft 454 kts 252°
2026-04-22 09:12 16.23705 -25.87468 34014 ft 454 kts 252°
2026-04-22 09:13 16.22016 -25.93795 34020 ft 454 kts 252°
2026-04-22 09:13 16.20324 -26.00125 34018 ft 454 kts 252°
2026-04-22 09:14 16.18634 -26.06441 34023 ft 454 kts 252°
2026-04-22 09:14 16.16941 -26.12761 34022 ft 454 kts 252°
2026-04-22 09:15 16.15245 -26.19084 34019 ft 454 kts 252°
2026-04-22 09:15 16.13544 -26.25400 34023 ft 453 kts 251°
2026-04-22 09:15 16.12398 -26.28435 34008 ft 449 kts 239°
2026-04-22 09:16 16.10786 -26.31208 34043 ft 448 kts 237°
2026-04-22 09:16 16.07417 -26.36673 34037 ft 449 kts 237°
2026-04-22 09:17 16.04064 -26.42175 34023 ft 451 kts 237°
2026-04-22 09:17 16.00756 -26.47710 34020 ft 452 kts 237°
2026-04-22 09:18 15.97453 -26.53280 34010 ft 453 kts 238°
2026-04-22 09:18 15.94150 -26.58854 34021 ft 453 kts 238°
2026-04-22 09:19 15.90838 -26.64436 34019 ft 454 kts 238°
2026-04-22 09:19 15.87519 -26.70023 34020 ft 455 kts 238°
2026-04-22 09:20 15.84195 -26.75614 34025 ft 455 kts 238°
2026-04-22 09:20 15.80869 -26.81203 34022 ft 455 kts 238°
2026-04-22 09:21 15.77541 -26.86791 34029 ft 455 kts 238°
2026-04-22 09:21 15.74216 -26.92371 34023 ft 455 kts 238°
2026-04-22 09:22 15.70889 -26.97950 34021 ft 454 kts 238°
2026-04-22 09:22 15.67586 -27.03484 34025 ft 454 kts 237°
2026-04-22 09:23 15.64262 -27.09048 34027 ft 454 kts 237°
2026-04-22 09:23 15.60936 -27.14612 34024 ft 454 kts 237°
2026-04-22 09:24 15.57609 -27.20174 34024 ft 453 kts 238°
2026-04-22 09:24 15.54283 -27.25730 34025 ft 454 kts 238°
2026-04-22 09:25 15.50948 -27.31297 34025 ft 455 kts 238°
2026-04-22 09:25 15.47610 -27.36866 34025 ft 455 kts 238°
2026-04-22 09:26 15.44261 -27.42448 34022 ft 456 kts 238°
2026-04-22 09:26 15.40910 -27.48030 34025 ft 456 kts 238°
2026-04-22 09:27 15.37551 -27.53619 34025 ft 456 kts 238°
2026-04-22 09:27 15.34196 -27.59199 34024 ft 456 kts 238°
2026-04-22 09:28 15.30841 -27.64776 34024 ft 456 kts 238°
2026-04-22 09:28 15.27484 -27.70350 34024 ft 456 kts 238°
2026-04-22 09:29 15.24134 -27.75910 34024 ft 455 kts 238°
2026-04-22 09:29 15.20799 -27.81440 34024 ft 455 kts 238°
2026-04-22 09:30 15.17448 -27.86993 34028 ft 455 kts 238°
2026-04-22 09:30 15.14095 -27.92545 34021 ft 455 kts 238°
2026-04-22 09:31 15.10740 -27.98097 34028 ft 455 kts 238°
2026-04-22 09:31 15.07378 -28.03656 34028 ft 456 kts 238°
2026-04-22 09:32 15.04010 -28.09221 34029 ft 456 kts 238°
2026-04-22 09:32 15.00638 -28.14788 34027 ft 457 kts 238°
2026-04-22 09:33 14.97265 -28.20354 34024 ft 456 kts 238°
2026-04-22 09:33 14.93894 -28.25913 34024 ft 456 kts 238°
2026-04-22 09:34 14.90522 -28.31470 34024 ft 456 kts 237°
2026-04-22 09:34 14.87150 -28.37024 34025 ft 456 kts 237°
2026-04-22 09:35 14.81894 -28.45199 34014 ft 456 kts 229°
2026-04-22 09:35 14.77217 -28.49620 34029 ft 457 kts 218°
2026-04-22 09:36 14.71761 -28.53017 34031 ft 459 kts 211°
2026-04-22 09:36 14.66141 -28.56180 34023 ft 460 kts 211°
2026-04-22 09:37 14.60520 -28.59361 34027 ft 461 kts 211°
2026-04-22 09:37 14.54896 -28.62578 34025 ft 462 kts 211°
2026-04-22 09:38 14.49274 -28.65807 34021 ft 463 kts 211°
2026-04-22 09:38 14.43653 -28.69036 34024 ft 463 kts 211°
2026-04-22 09:39 14.38030 -28.72264 34021 ft 462 kts 211°
2026-04-22 09:39 14.32407 -28.75489 34021 ft 463 kts 211°
2026-04-22 09:40 14.26781 -28.78713 34022 ft 463 kts 211°
2026-04-22 09:40 14.21153 -28.81937 34021 ft 463 kts 211°
2026-04-22 09:41 14.15531 -28.85155 34019 ft 462 kts 211°
2026-04-22 09:41 14.09903 -28.88375 34019 ft 462 kts 211°
2026-04-22 09:42 14.04278 -28.91592 34019 ft 463 kts 211°
2026-04-22 09:42 13.98652 -28.94807 34021 ft 463 kts 211°
2026-04-22 09:43 13.93017 -28.98026 34021 ft 463 kts 211°
2026-04-22 09:43 13.87379 -29.01244 34018 ft 463 kts 211°
2026-04-22 09:44 13.81743 -29.04460 34019 ft 463 kts 211°
2026-04-22 09:44 13.76109 -29.07672 34019 ft 463 kts 211°
2026-04-22 09:45 13.70475 -29.10883 34031 ft 463 kts 211°
2026-04-22 09:45 13.64835 -29.14096 34010 ft 464 kts 211°
2026-04-22 09:46 13.59182 -29.17314 34018 ft 464 kts 211°
2026-04-22 09:46 13.53566 -29.20510 34018 ft 465 kts 211°
2026-04-22 09:47 13.47910 -29.23726 34019 ft 465 kts 211°
2026-04-22 09:47 13.42245 -29.26945 34029 ft 465 kts 210°
2026-04-22 09:48 13.36586 -29.30160 34016 ft 465 kts 210°
2026-04-22 09:48 13.30928 -29.33372 34024 ft 465 kts 210°
2026-04-22 09:49 13.25260 -29.36588 34020 ft 465 kts 210°
2026-04-22 09:49 13.19601 -29.39798 34021 ft 465 kts 210°
2026-04-22 09:50 13.13933 -29.43010 34015 ft 465 kts 210°
2026-04-22 09:50 13.08269 -29.46219 34017 ft 465 kts 210°
2026-04-22 09:51 13.02606 -29.49426 34006 ft 465 kts 210°
2026-04-22 09:51 12.97892 -29.52093 34019 ft 465 kts 210°
2026-04-22 09:52 12.92221 -29.55301 34017 ft 466 kts 210°
2026-04-22 09:52 12.86549 -29.58508 34017 ft 466 kts 210°
2026-04-22 09:53 12.80877 -29.61713 34012 ft 465 kts 210°
2026-04-22 09:53 12.75212 -29.64913 34017 ft 465 kts 210°
2026-04-22 09:54 12.69547 -29.68111 34019 ft 465 kts 210°
2026-04-22 09:54 12.63879 -29.71308 34020 ft 465 kts 210°
2026-04-22 09:55 12.58217 -29.74501 34015 ft 465 kts 210°
2026-04-22 09:55 12.52556 -29.77693 34017 ft 464 kts 210°
2026-04-22 09:56 12.46893 -29.80883 34016 ft 464 kts 210°
2026-04-22 09:56 12.41229 -29.84072 34022 ft 464 kts 210°
2026-04-22 09:57 12.35613 -29.87233 34011 ft 464 kts 210°
2026-04-22 09:57 12.29958 -29.90414 34017 ft 464 kts 210°
2026-04-22 09:58 12.24305 -29.93591 34014 ft 464 kts 210°
2026-04-22 09:58 12.18651 -29.96769 34014 ft 464 kts 210°
2026-04-22 09:59 12.12998 -29.99944 34005 ft 464 kts 210°
2026-04-22 09:59 12.07340 -30.03120 34014 ft 464 kts 210°
2026-04-22 10:00 12.01688 -30.06292 34012 ft 464 kts 210°
2026-04-22 10:00 11.96026 -30.09468 34018 ft 464 kts 210°
2026-04-22 10:01 11.90366 -30.12640 34016 ft 464 kts 209°
2026-04-22 10:01 11.84697 -30.15817 34008 ft 465 kts 209°
2026-04-22 10:02 11.79026 -30.18993 34018 ft 465 kts 209°
2026-04-22 10:02 11.73355 -30.22167 34013 ft 465 kts 209°
2026-04-22 10:03 11.67680 -30.25343 34008 ft 465 kts 209°
2026-04-22 10:03 11.62002 -30.28518 34013 ft 466 kts 209°
2026-04-22 10:04 11.56317 -30.31696 34012 ft 466 kts 209°
2026-04-22 10:04 11.50632 -30.34872 34011 ft 466 kts 209°
2026-04-22 10:05 11.44942 -30.38050 34008 ft 466 kts 209°
2026-04-22 10:05 11.39249 -30.41229 34013 ft 466 kts 209°
2026-04-22 10:06 11.33561 -30.44403 34009 ft 466 kts 208°
2026-04-22 10:06 11.27871 -30.47576 34011 ft 466 kts 208°
2026-04-22 10:07 11.22191 -30.50742 34011 ft 466 kts 208°
2026-04-22 10:07 11.16502 -30.53912 34013 ft 466 kts 208°
2026-04-22 10:08 11.10823 -30.57075 34009 ft 465 kts 208°
2026-04-22 10:08 11.05142 -30.60238 34011 ft 465 kts 208°
2026-04-22 10:09 10.99459 -30.63401 34006 ft 466 kts 208°
2026-04-22 10:09 10.93774 -30.66563 34011 ft 466 kts 208°
2026-04-22 10:10 10.88083 -30.69728 34012 ft 466 kts 208°
2026-04-22 10:10 10.82434 -30.72868 34006 ft 466 kts 208°
2026-04-22 10:11 10.76744 -30.76030 34008 ft 466 kts 208°
2026-04-22 10:11 10.71063 -30.79192 34011 ft 466 kts 208°
2026-04-22 10:12 10.65380 -30.82358 34005 ft 466 kts 208°
2026-04-22 10:12 10.59696 -30.85522 34008 ft 466 kts 208°
2026-04-22 10:13 10.54000 -30.88680 34011 ft 466 kts 208°
2026-04-22 10:13 10.48299 -30.91825 34011 ft 466 kts 208°
2026-04-22 10:14 10.42598 -30.94970 34011 ft 466 kts 208°
2026-04-22 10:14 10.36896 -30.98117 34008 ft 467 kts 207°
2026-04-22 10:15 10.31189 -31.01267 34009 ft 467 kts 207°
2026-04-22 10:15 10.25479 -31.04416 34013 ft 467 kts 207°
2026-04-22 10:16 10.19758 -31.07571 34013 ft 468 kts 207°
2026-04-22 10:16 10.14032 -31.10727 34010 ft 468 kts 207°
2026-04-22 10:17 10.08301 -31.13884 34008 ft 469 kts 207°
2026-04-22 10:17 10.02572 -31.17039 33999 ft 469 kts 207°
2026-04-22 10:18 9.96837 -31.20197 34005 ft 469 kts 207°
2026-04-22 10:18 9.91104 -31.23352 34009 ft 469 kts 207°
2026-04-22 10:19 9.85367 -31.26508 34008 ft 469 kts 207°
2026-04-22 10:19 9.79627 -31.29664 34006 ft 469 kts 207°
2026-04-22 10:20 9.73887 -31.32819 34006 ft 469 kts 207°
2026-04-22 10:20 9.68150 -31.35972 34016 ft 469 kts 207°
2026-04-22 10:21 9.62401 -31.39126 34007 ft 470 kts 207°
2026-04-22 10:21 9.56680 -31.42257 34008 ft 471 kts 207°
2026-04-22 10:22 9.50881 -31.45431 34008 ft 471 kts 207°
2026-04-22 10:22 9.45114 -31.48587 34009 ft 471 kts 207°
2026-04-22 10:23 9.39343 -31.51744 34008 ft 472 kts 207°
2026-04-22 10:23 9.33567 -31.54904 34007 ft 472 kts 207°
2026-04-22 10:24 9.27793 -31.58062 34009 ft 472 kts 207°
2026-04-22 10:24 9.22013 -31.61221 34008 ft 472 kts 207°
2026-04-22 10:25 9.16232 -31.64379 34008 ft 472 kts 207°
2026-04-22 10:25 9.10486 -31.67517 34005 ft 472 kts 207°
2026-04-22 10:26 9.04706 -31.70673 34008 ft 472 kts 207°
2026-04-22 10:26 8.98930 -31.73826 33999 ft 472 kts 207°
2026-04-22 10:27 8.93140 -31.76984 34009 ft 473 kts 207°
2026-04-22 10:27 8.87347 -31.80144 34010 ft 473 kts 207°
2026-04-22 10:28 8.81542 -31.83308 34006 ft 474 kts 207°
2026-04-22 10:28 8.75730 -31.86475 34009 ft 475 kts 207°
2026-04-22 10:29 8.69916 -31.89643 34007 ft 475 kts 207°
2026-04-22 10:29 8.64093 -31.92814 33999 ft 476 kts 207°
2026-04-22 10:30 8.58262 -31.95988 34008 ft 477 kts 207°
2026-04-22 10:30 8.52420 -31.99167 34006 ft 477 kts 207°
2026-04-22 10:31 8.46570 -32.02350 34004 ft 478 kts 207°
2026-04-22 10:31 8.40703 -32.05540 34003 ft 479 kts 207°
2026-04-22 10:32 8.34837 -32.08729 33997 ft 479 kts 207°
2026-04-22 10:32 8.28970 -32.11917 33998 ft 480 kts 207°
2026-04-22 10:33 8.23089 -32.15112 34001 ft 480 kts 207°
2026-04-22 10:33 8.17199 -32.18311 34000 ft 481 kts 207°
2026-04-22 10:34 8.11299 -32.21514 34004 ft 481 kts 207°
2026-04-22 10:34 8.05442 -32.24693 34002 ft 481 kts 207°
2026-04-22 10:35 7.99548 -32.27891 33995 ft 482 kts 207°
2026-04-22 10:35 7.93640 -32.31095 34003 ft 482 kts 207°
2026-04-22 10:36 7.87732 -32.34297 34003 ft 483 kts 207°
2026-04-22 10:36 7.81816 -32.37504 34000 ft 483 kts 206°
2026-04-22 10:37 7.73910 -32.41787 34002 ft 484 kts 206°
2026-04-22 10:38 7.68010 -32.44983 34000 ft 484 kts 207°
2026-04-22 10:38 7.62070 -32.48199 34004 ft 485 kts 207°
2026-04-22 10:39 7.56124 -32.51417 34003 ft 485 kts 207°
2026-04-22 10:39 7.50173 -32.54637 34002 ft 486 kts 207°
2026-04-22 10:40 7.44221 -32.57856 34003 ft 486 kts 207°
2026-04-22 10:40 7.38274 -32.61072 34000 ft 486 kts 207°
2026-04-22 10:41 7.32314 -32.64294 34003 ft 485 kts 206°
2026-04-22 10:41 7.26361 -32.67511 34001 ft 485 kts 206°
2026-04-22 10:42 7.20411 -32.70725 33997 ft 485 kts 206°
2026-04-22 10:42 7.14496 -32.73920 34000 ft 485 kts 206°
2026-04-22 10:43 7.08546 -32.77132 34003 ft 485 kts 206°
2026-04-22 10:43 7.02594 -32.80345 33995 ft 485 kts 207°
2026-04-22 10:44 6.96641 -32.83557 34000 ft 485 kts 207°
2026-04-22 10:44 6.90692 -32.86766 33999 ft 485 kts 207°
2026-04-22 10:45 6.84744 -32.89974 34005 ft 485 kts 206°
2026-04-22 10:45 6.78803 -32.93177 33999 ft 484 kts 206°
2026-04-22 10:46 6.72869 -32.96376 33996 ft 483 kts 206°
2026-04-22 10:46 6.66963 -32.99558 33993 ft 483 kts 207°
2026-04-22 10:47 6.61053 -33.02741 33996 ft 483 kts 207°
2026-04-22 10:47 6.55128 -33.05933 33998 ft 483 kts 207°
2026-04-22 10:48 6.49216 -33.09116 34003 ft 484 kts 207°
2026-04-22 10:48 6.43352 -33.12273 34000 ft 484 kts 207°
2026-04-22 10:49 6.37349 -33.15504 33998 ft 485 kts 207°
2026-04-22 10:49 6.31429 -33.18686 33996 ft 486 kts 206°
2026-04-22 10:50 6.25449 -33.21881 34001 ft 487 kts 206°
2026-04-22 10:50 6.19477 -33.25070 34002 ft 489 kts 206°
2026-04-22 10:51 6.13508 -33.28260 34001 ft 489 kts 206°
2026-04-22 10:51 6.07465 -33.31490 33997 ft 490 kts 206°
2026-04-22 10:52 6.01480 -33.34689 33991 ft 490 kts 206°
2026-04-22 10:52 5.95473 -33.37898 33997 ft 490 kts 206°
2026-04-22 10:53 5.89459 -33.41110 33997 ft 490 kts 206°
2026-04-22 10:53 5.83444 -33.44322 33997 ft 489 kts 207°
2026-04-22 10:54 5.77460 -33.47516 33999 ft 489 kts 207°
2026-04-22 10:54 5.71453 -33.50722 33997 ft 489 kts 207°
2026-04-22 10:55 5.65459 -33.53921 33999 ft 488 kts 207°
2026-04-22 10:55 5.59468 -33.57117 33995 ft 487 kts 207°
2026-04-22 10:56 5.53505 -33.60297 33992 ft 486 kts 207°
2026-04-22 10:56 5.47603 -33.63443 33994 ft 485 kts 207°
2026-04-22 10:57 5.41651 -33.66616 34004 ft 485 kts 207°
2026-04-22 10:57 5.35699 -33.69788 33995 ft 486 kts 207°
2026-04-22 10:58 5.29714 -33.72977 33997 ft 488 kts 207°
2026-04-22 10:58 5.23711 -33.76175 34001 ft 490 kts 207°
2026-04-22 10:59 5.17679 -33.79388 34002 ft 492 kts 207°
2026-04-22 10:59 5.11640 -33.82604 34001 ft 493 kts 207°
2026-04-22 11:00 5.05588 -33.85826 33999 ft 493 kts 207°
2026-04-22 11:00 4.99533 -33.89049 33992 ft 494 kts 207°
2026-04-22 11:01 4.93485 -33.92268 33996 ft 494 kts 207°
2026-04-22 11:01 4.87405 -33.95502 33993 ft 495 kts 207°
2026-04-22 11:02 4.81322 -33.98738 33993 ft 495 kts 207°
2026-04-22 11:02 4.75249 -34.01969 33997 ft 495 kts 207°
2026-04-22 11:03 4.69166 -34.05204 33999 ft 495 kts 207°
2026-04-22 11:03 4.63102 -34.08428 33995 ft 494 kts 207°
2026-04-22 11:04 4.57088 -34.11625 33990 ft 493 kts 207°
2026-04-22 11:04 4.51045 -34.14837 33992 ft 492 kts 207°
2026-04-22 11:05 4.45014 -34.18051 33997 ft 492 kts 207°
2026-04-22 11:05 4.38980 -34.21282 33998 ft 493 kts 207°
2026-04-22 11:05 4.35947 -34.22906 34192 ft 494 kts 207°
2026-04-22 11:06 4.32927 -34.24524 34522 ft 493 kts 207°
2026-04-22 11:06 4.29903 -34.26143 34877 ft 492 kts 207°
2026-04-22 11:06 4.26905 -34.27747 35217 ft 490 kts 207°
2026-04-22 11:06 4.23900 -34.29355 35538 ft 489 kts 207°
2026-04-22 11:07 4.20910 -34.30954 35814 ft 489 kts 207°
2026-04-22 11:07 4.17906 -34.32560 35925 ft 492 kts 207°
2026-04-22 11:07 4.14881 -34.34178 35969 ft 492 kts 207°
2026-04-22 11:08 4.08869 -34.37393 35988 ft 490 kts 206°
2026-04-22 11:08 4.02874 -34.40598 35993 ft 487 kts 206°
2026-04-22 11:09 3.96902 -34.43791 35995 ft 486 kts 206°
2026-04-22 11:09 3.90955 -34.46969 35995 ft 485 kts 206°
2026-04-22 11:10 3.85014 -34.50144 35996 ft 485 kts 206°
2026-04-22 11:10 3.79053 -34.53328 35998 ft 486 kts 206°
2026-04-22 11:11 3.73098 -34.56510 35992 ft 486 kts 206°
2026-04-22 11:11 3.67133 -34.59696 35993 ft 487 kts 206°
2026-04-22 11:12 3.61148 -34.62893 35997 ft 488 kts 206°
2026-04-22 11:12 3.55160 -34.66092 35994 ft 489 kts 206°
2026-04-22 11:13 3.49187 -34.69280 35993 ft 490 kts 206°
2026-04-22 11:13 3.43171 -34.72492 35994 ft 490 kts 206°
2026-04-22 11:14 3.37163 -34.75700 35994 ft 491 kts 206°
2026-04-22 11:14 3.31148 -34.78912 35992 ft 491 kts 206°
2026-04-22 11:15 3.25127 -34.82127 35992 ft 491 kts 206°
2026-04-22 11:15 3.19112 -34.85338 35991 ft 490 kts 206°
2026-04-22 11:16 3.13100 -34.88548 35990 ft 490 kts 206°
2026-04-22 11:16 3.07083 -34.91759 35993 ft 490 kts 206°
2026-04-22 11:17 3.01077 -34.94965 35998 ft 489 kts 206°
2026-04-22 11:17 2.95078 -34.98166 35995 ft 489 kts 206°
2026-04-22 11:18 2.89068 -35.01372 35996 ft 489 kts 206°
2026-04-22 11:18 2.83102 -35.04555 35994 ft 489 kts 206°
2026-04-22 11:19 2.77116 -35.07749 35990 ft 489 kts 206°
2026-04-22 11:19 2.71170 -35.10921 35996 ft 489 kts 206°
2026-04-22 11:20 2.65184 -35.14106 35995 ft 489 kts 206°
2026-04-22 11:20 2.59179 -35.17290 35993 ft 489 kts 206°
2026-04-22 11:21 2.53202 -35.20461 35993 ft 489 kts 206°
2026-04-22 11:21 2.47195 -35.23648 36000 ft 489 kts 206°
2026-04-22 11:22 2.41205 -35.26828 35989 ft 488 kts 206°
2026-04-22 11:22 2.35217 -35.30006 35991 ft 488 kts 206°
2026-04-22 11:23 2.29223 -35.33187 35996 ft 488 kts 206°
2026-04-22 11:23 2.23243 -35.36360 35994 ft 488 kts 206°
2026-04-22 11:24 2.17244 -35.39543 35999 ft 488 kts 206°
2026-04-22 11:24 2.11262 -35.42717 35995 ft 488 kts 206°
2026-04-22 11:25 2.05268 -35.45897 35994 ft 487 kts 206°
2026-04-22 11:25 2.00288 -35.48539 35993 ft 487 kts 206°
2026-04-22 11:26 1.94318 -35.51705 35993 ft 487 kts 206°
2026-04-22 11:26 1.88347 -35.54872 35991 ft 487 kts 206°
2026-04-22 11:27 1.82322 -35.58067 35995 ft 487 kts 206°
2026-04-22 11:27 1.76378 -35.61219 35996 ft 487 kts 206°
2026-04-22 11:28 1.70393 -35.64393 35997 ft 487 kts 206°
2026-04-22 11:28 1.64410 -35.67565 35995 ft 487 kts 206°
2026-04-22 11:29 1.58420 -35.70741 35992 ft 487 kts 206°
2026-04-22 11:29 1.52432 -35.73915 35989 ft 487 kts 206°
2026-04-22 11:30 1.46440 -35.77091 35988 ft 488 kts 206°
2026-04-22 11:30 1.40446 -35.80269 35993 ft 488 kts 206°
2026-04-22 11:31 1.34449 -35.83448 35992 ft 488 kts 206°
2026-04-22 11:31 1.28444 -35.86630 35989 ft 488 kts 206°
2026-04-22 11:32 1.22449 -35.89808 35988 ft 489 kts 206°
2026-04-22 11:32 1.16441 -35.92992 35992 ft 489 kts 206°
2026-04-22 11:33 1.10418 -35.96183 35998 ft 490 kts 206°
2026-04-22 11:33 1.04394 -35.99375 35996 ft 490 kts 206°
2026-04-22 11:34 0.98364 -36.02571 35991 ft 490 kts 206°
2026-04-22 11:34 0.92377 -36.05744 35994 ft 491 kts 206°
2026-04-22 11:35 0.86344 -36.08940 35989 ft 491 kts 206°
2026-04-22 11:35 0.80318 -36.12133 35987 ft 491 kts 206°
2026-04-22 11:36 0.74281 -36.15331 35992 ft 491 kts 206°
2026-04-22 11:36 0.68250 -36.18526 35990 ft 491 kts 206°
2026-04-22 11:37 0.62222 -36.21720 35988 ft 491 kts 206°
2026-04-22 11:37 0.56187 -36.24917 35990 ft 491 kts 206°
2026-04-22 11:38 0.50159 -36.28110 35987 ft 490 kts 206°
2026-04-22 11:38 0.41118 -36.32899 35988 ft 490 kts 206°
2026-04-22 11:39 0.35094 -36.36091 35988 ft 490 kts 206°
2026-04-22 11:39 0.29070 -36.39281 35990 ft 490 kts 206°
2026-04-22 11:40 0.23048 -36.42471 35987 ft 490 kts 206°
2026-04-22 11:40 0.17024 -36.45662 35991 ft 490 kts 206°
2026-04-22 11:41 0.11010 -36.48848 35987 ft 491 kts 206°
2026-04-22 11:41 0.04974 -36.52045 35989 ft 491 kts 206°
2026-04-22 11:42 -0.01021 -36.55221 35990 ft 491 kts 206°
2026-04-22 11:42 -0.07064 -36.58422 35989 ft 492 kts 206°
2026-04-22 11:43 -0.13120 -36.61630 35990 ft 493 kts 206°
2026-04-22 11:43 -0.19190 -36.64845 35988 ft 494 kts 206°
2026-04-22 11:44 -0.25268 -36.68064 35986 ft 495 kts 206°
2026-04-22 11:44 -0.31354 -36.71288 35986 ft 495 kts 206°
2026-04-22 11:45 -0.37445 -36.74515 35986 ft 495 kts 206°
2026-04-22 11:45 -0.43534 -36.77741 35985 ft 495 kts 207°
2026-04-22 11:46 -0.49612 -36.80961 35985 ft 495 kts 207°
2026-04-22 11:46 -0.55690 -36.84181 35987 ft 494 kts 207°
2026-04-22 11:47 -0.61756 -36.87395 35987 ft 493 kts 206°
2026-04-22 11:47 -0.67775 -36.90584 35987 ft 493 kts 206°
2026-04-22 11:48 -0.73880 -36.93818 35982 ft 493 kts 206°
2026-04-22 11:48 -0.79898 -36.97007 35984 ft 493 kts 206°
2026-04-22 11:49 -0.85959 -37.00219 35993 ft 493 kts 207°
2026-04-22 11:49 -0.92011 -37.03427 35991 ft 492 kts 206°
2026-04-22 11:50 -0.98153 -37.06412 35988 ft 490 kts 202°
2026-04-22 11:50 -1.04413 -37.09094 35988 ft 490 kts 201°
2026-04-22 11:51 -1.10682 -37.11761 35981 ft 489 kts 202°
2026-04-22 11:51 -1.16938 -37.14448 35984 ft 489 kts 202°
2026-04-22 11:52 -1.23186 -37.17148 35980 ft 489 kts 202°
2026-04-22 11:52 -1.29439 -37.19854 35983 ft 490 kts 202°
2026-04-22 11:53 -1.35697 -37.22560 35988 ft 490 kts 202°
2026-04-22 11:53 -1.41960 -37.25268 35988 ft 490 kts 202°
2026-04-22 11:54 -1.48221 -37.27976 35989 ft 490 kts 202°
2026-04-22 11:54 -1.54483 -37.30683 35985 ft 491 kts 202°
2026-04-22 11:55 -1.60751 -37.33394 35985 ft 491 kts 202°
2026-04-22 11:55 -1.67019 -37.36105 35987 ft 491 kts 202°
2026-04-22 11:56 -1.73295 -37.38819 35986 ft 491 kts 202°
2026-04-22 11:56 -1.79569 -37.41533 35987 ft 492 kts 202°
2026-04-22 11:57 -1.85845 -37.44247 35985 ft 492 kts 202°
2026-04-22 11:57 -1.92096 -37.46952 35990 ft 492 kts 202°
2026-04-22 11:58 -1.98421 -37.49688 35995 ft 492 kts 202°
2026-04-22 11:58 -2.04660 -37.52388 35990 ft 492 kts 202°
2026-04-22 11:59 -2.10938 -37.55104 35988 ft 491 kts 202°
2026-04-22 11:59 -2.17211 -37.57819 35988 ft 491 kts 202°
2026-04-22 12:00 -2.23475 -37.60530 35991 ft 490 kts 202°
2026-04-22 12:00 -2.29736 -37.63240 35991 ft 490 kts 202°
2026-04-22 12:01 -2.35995 -37.65949 35989 ft 490 kts 202°
2026-04-22 12:01 -2.42255 -37.68659 35960 ft 491 kts 202°
2026-04-22 12:02 -2.45428 -37.70032 35132 ft 503 kts 202°
2026-04-22 12:02 -2.48643 -37.71423 34363 ft 503 kts 202°
2026-04-22 12:02 -2.51854 -37.72814 33513 ft 503 kts 203°
2026-04-22 12:02 -2.55066 -37.74205 32514 ft 505 kts 203°
2026-04-22 12:03 -2.58295 -37.75604 31600 ft 505 kts 203°
2026-04-22 12:03 -2.61523 -37.77002 30645 ft 506 kts 203°
2026-04-22 12:03 -2.64749 -37.78400 29956 ft 502 kts 203°
2026-04-22 12:03 -2.67852 -37.79744 29223 ft 498 kts 203°
2026-04-22 12:04 -2.71018 -37.81116 28537 ft 493 kts 203°
2026-04-22 12:04 -2.74148 -37.82472 27903 ft 488 kts 202°
2026-04-22 12:04 -2.77255 -37.83818 27303 ft 484 kts 202°
2026-04-22 12:04 -2.80330 -37.85150 26696 ft 480 kts 202°
2026-04-22 12:05 -2.83379 -37.86471 26102 ft 476 kts 202°
2026-04-22 12:05 -2.86405 -37.87782 25494 ft 472 kts 202°
2026-04-22 12:05 -2.89412 -37.89085 24907 ft 470 kts 202°
2026-04-22 12:05 -2.92403 -37.90381 24311 ft 467 kts 202°
2026-04-22 12:06 -2.95378 -37.91670 23738 ft 465 kts 202°
2026-04-22 12:06 -2.98346 -37.92957 23075 ft 463 kts 202°
2026-04-22 12:06 -3.01287 -37.94232 22464 ft 459 kts 202°
2026-04-22 12:06 -3.04203 -37.95496 21888 ft 455 kts 202°
2026-04-22 12:07 -3.07091 -37.96749 21325 ft 451 kts 202°
2026-04-22 12:07 -3.09889 -37.98139 20766 ft 448 kts 208°
2026-04-22 12:07 -3.12507 -37.99801 20232 ft 445 kts 214°
2026-04-22 12:07 -3.14888 -38.01691 19704 ft 442 kts 219°
2026-04-22 12:08 -3.17211 -38.03704 19156 ft 440 kts 219°
2026-04-22 12:08 -3.19519 -38.05691 18602 ft 437 kts 219°
2026-04-22 12:08 -3.21821 -38.07664 18028 ft 435 kts 219°
2026-04-22 12:08 -3.24084 -38.09598 17435 ft 419 kts 219°
2026-04-22 12:09 -3.26252 -38.11447 16905 ft 402 kts 219°
2026-04-22 12:09 -3.28361 -38.13242 16429 ft 397 kts 219°
2026-04-22 12:09 -3.30385 -38.14963 15965 ft 396 kts 219°
2026-04-22 12:09 -3.32489 -38.16752 15461 ft 397 kts 219°
2026-04-22 12:10 -3.34592 -38.18538 14961 ft 397 kts 219°
2026-04-22 12:10 -3.36692 -38.20323 14467 ft 397 kts 219°
2026-04-22 12:10 -3.38796 -38.22112 13962 ft 397 kts 219°
2026-04-22 12:10 -3.40905 -38.23905 13414 ft 397 kts 219°
2026-04-22 12:11 -3.43008 -38.25694 12889 ft 396 kts 219°
2026-04-22 12:11 -3.45104 -38.27477 12380 ft 395 kts 219°
2026-04-22 12:11 -3.47194 -38.29255 11878 ft 393 kts 219°
2026-04-22 12:11 -3.49257 -38.31012 11376 ft 386 kts 219°
2026-04-22 12:12 -3.51287 -38.32740 11036 ft 378 kts 219°
2026-04-22 12:12 -3.53256 -38.34417 10875 ft 365 kts 219°
2026-04-22 12:12 -3.54525 -38.35497 10768 ft 358 kts 219°
2026-04-22 12:12 -3.56381 -38.37078 10597 ft 342 kts 219°
2026-04-22 12:13 -3.58148 -38.38583 10454 ft 326 kts 219°
2026-04-22 12:13 -3.59846 -38.40027 10309 ft 314 kts 218°
2026-04-22 12:13 -3.61472 -38.41411 10199 ft 301 kts 218°
2026-04-22 12:13 -3.63042 -38.42747 10071 ft 291 kts 218°
2026-04-22 12:14 -3.64566 -38.44045 9916 ft 289 kts 218°
2026-04-22 12:14 -3.66138 -38.45379 9616 ft 305 kts 218°
2026-04-22 12:14 -3.67764 -38.46761 9336 ft 304 kts 219°
2026-04-22 12:14 -3.69372 -38.48133 9005 ft 304 kts 219°
2026-04-22 12:15 -3.70976 -38.49500 8681 ft 300 kts 218°
2026-04-22 12:15 -3.72567 -38.50853 8275 ft 299 kts 218°
2026-04-22 12:15 -3.74139 -38.52192 7921 ft 297 kts 219°
2026-04-22 12:15 -3.75453 -38.53767 7548 ft 297 kts 245°
2026-04-22 12:16 -3.75793 -38.55760 7222 ft 290 kts 279°
2026-04-22 12:16 -3.75022 -38.57558 6907 ft 281 kts 310°
2026-04-22 12:16 -3.73738 -38.59015 6646 ft 279 kts 310°
2026-04-22 12:16 -3.72536 -38.60546 6322 ft 281 kts 308°
2026-04-22 12:17 -3.71345 -38.62092 5994 ft 280 kts 308°
2026-04-22 12:17 -3.70138 -38.63630 5683 ft 284 kts 309°
2026-04-22 12:17 -3.68904 -38.65182 5360 ft 285 kts 309°
2026-04-22 12:17 -3.67682 -38.66713 5191 ft 275 kts 309°
2026-04-22 12:18 -3.66557 -38.68209 4893 ft 264 kts 297°
2026-04-22 12:18 -3.66207 -38.69943 4591 ft 253 kts 258°
2026-04-22 12:18 -3.66882 -38.71493 4314 ft 239 kts 227°
2026-04-22 12:18 -3.68114 -38.72521 4039 ft 226 kts 202°
2026-04-22 12:19 -3.69581 -38.72884 3770 ft 211 kts 176°
2026-04-22 12:19 -3.70947 -38.72585 3558 ft 196 kts 152°
2026-04-22 12:19 -3.72021 -38.71817 3426 ft 188 kts 134°
2026-04-22 12:19 -3.72744 -38.70716 3233 ft 192 kts 111°
2026-04-22 12:20 -3.73226 -38.69467 3015 ft 194 kts 110°
2026-04-22 12:20 -3.73639 -38.68189 2748 ft 191 kts 106°
2026-04-22 12:20 -3.73988 -38.66921 2503 ft 187 kts 105°
2026-04-22 12:20 -3.74317 -38.65687 2302 ft 179 kts 106°
2026-04-22 12:21 -3.74633 -38.64499 2044 ft 173 kts 105°
2026-04-22 12:21 -3.74935 -38.63368 1831 ft 162 kts 106°
2026-04-22 12:21 -3.75229 -38.62267 1643 ft 165 kts 105°
2026-04-22 12:21 -3.75524 -38.61150 1384 ft 164 kts 106°
2026-04-22 12:22 -3.75806 -38.60096 1202 ft 148 kts 106°
2026-04-22 12:22 -3.76061 -38.59141 1037 ft 142 kts 106°
2026-04-22 12:22 -3.76314 -38.58188 847 ft 142 kts 106°
2026-04-22 12:22 -3.76576 -38.57200 665 ft 147 kts 107°
2026-04-22 12:23 -3.76834 -38.56257 453 ft 143 kts 107°
2026-04-22 12:23 -3.77073 -38.55311 292 ft 139 kts 108°
2026-04-22 12:23 -3.77330 -38.54375 109 ft 138 kts 106°
2026-04-22 12:23 -3.77557 -38.53529 88 ft 107 kts 104°
2026-04-22 12:24 -3.77694 -38.53035 85 ft 42 kts 106°
2026-04-22 12:24 -3.77767 -38.52756 84 ft 24 kts 105°
2026-04-22 12:24 -3.77813 -38.52638 72 ft 15 kts 142°
2026-04-22 12:24 -3.77887 -38.52689 84 ft 15 kts 243°
2026-04-22 12:25 -3.77914 -38.52787 84 ft 15 kts 273°
2026-04-22 12:25 -3.77885 -38.52887 84 ft 15 kts 287°
2026-04-22 12:25 -3.77857 -38.52986 84 ft 15 kts 285°
2026-04-22 12:25 -3.77830 -38.53087 85 ft 15 kts 285°
2026-04-22 12:26 -3.77804 -38.53187 86 ft 15 kts 285°
2026-04-22 12:26 -3.77779 -38.53279 88 ft 10 kts 285°
2026-04-22 12:26 -3.77762 -38.53343 86 ft 6 kts 276°
2026-04-22 12:26 -3.77788 -38.53364 87 ft 5 kts 202°
2026-04-22 12:27 -3.77824 -38.53375 86 ft 5 kts 195°
2026-04-22 12:27 -3.77834 -38.53378 87 ft 0 kts 194°